Weather in Ivankiv

Ukraine / Kyiv Region     50°18′59″N   31°03′46″E
temp.,
°C
wind,
m/s
gust,
m/s
humid.,
%
clouds,
%
prec.,
mm/h
press.,
hPa
HPBL,
m
21 january, thu
thu2123:00−11sse4108955 0.0 1023284
02:00−9s5119271 0.0 1022363
05:00−7s51194100 0.2 1021407
08:00−5s5129399 0.5 1020414
11:00−2ssw6128997 0.0 1021454
14:000ssw5118773 0.0 1019442
17:00−2ssw5129310 0.0 1019296
20:00−2ssw410928 0.0 1018248
22 january, fri
fri2223:00−2ssw410910 0.0 1018221
02:00−3ssw47903 0.0 1017149
05:00−3s479066 0.0 1015148
08:00−2ssw498967 0.0 1015182
11:00+2ssw4118454 0.0 1015287
14:00+3s4108661 0.0 1014272
17:00+1s5108599 0.0 1013217
20:000s4118977 0.0 1013252
23 january, sat
sat2323:000s4118730 0.0 1012250
02:00−1s499339 0.0 1011216
05:00+1s489791 0.0 1011267
08:00−1sse359595 0.0 1011116
11:00+1sse489298 0.0 1011292
14:00+3s489973 0.0 1010292
17:00+3s499797 0.0 1009244
20:00+1se479583 0.0 1009131
24 january, sun
sun2423:00+3sse5119876 0.0 1008292
02:00+3sse5129888 0.0 1008315
05:00+4sse61395100 0.0 1006363
08:00+5sse71595100 0.3 1005467
11:00+6sse71691100 0.5 1004614
14:00+6sse91890100 0.7 1002697
17:00+6s81790100 0.9 1002593
20:00+4s369599 1.0 1004120
25 january, mon
mon2523:00+4sse4109591 0.0 1004232
02:00+4sse379794 0.0 1004167
05:00+4se3697100 0.0 1004148
08:00+4sse4995100 0.0 1004283
11:00+5se4992100 0.0 1004467
14:00+6se51195100 0.0 1001439
17:00+7ese91694100 2.6 999639
20:00+7se101890100 3.9 995831